• In Belarus
  • List of Countries
  • For 7 days
  • Water Temperature
  • Satellite Maps
  • Weather Map
  • Weather Widgets
  • user-avatar
    Login

    Hourly Weather Munchenstein

    Today, 15 December, Friday

    Time Temperature Precipitation Wind Pressure Humidity
    00:00 +3°C° 2.3 mm 3 mps 712 mmHg 92%
    01:00 +2°C° 0 mm 6 mps 712 mmHg 91%
    02:00 +2°C° 0.7 mm 5 mps 712 mmHg 89%
    03:00 +1°C° 0.7 mm 5 mps 713 mmHg 88%
    04:00 +1°C° 0.7 mm 5 mps 714 mmHg 87%
    05:00 +1°C° 0 mm 4 mps 714 mmHg 87%
    06:00 0°C° 0 mm 4 mps 714 mmHg 87%
    07:00 +1°C° 0 mm 3 mps 714 mmHg 86%
    08:00 0°C° 0.1 mm 4 mps 714 mmHg 84%
    09:00 +1°C° 0.1 mm 4 mps 714 mmHg 83%
    10:00 +1°C° 0.1 mm 4 mps 714 mmHg 82%
    11:00 +3°C° 0.1 mm 4 mps 714 mmHg 80%
    12:00 +2°C° 0.1 mm 5 mps 715 mmHg 79%
    13:00 +3°C° 0.1 mm 5 mps 715 mmHg 78%
    14:00 +3°C° 0.1 mm 4 mps 715 mmHg 80%
    15:00 +3°C° 0.1 mm 3 mps 715 mmHg 82%
    16:00 +2°C° 0.1 mm 3 mps 715 mmHg 84%
    17:00 +2°C° 0 mm 2 mps 715 mmHg 86%
    18:00 +1°C° 0 mm 2 mps 715 mmHg 88%
    19:00 -1°C° 0 mm 2 mps 715 mmHg 89%
    20:00 -1°C° 0.1 mm 2 mps 715 mmHg 89%
    21:00 -1°C° 0.1 mm 2 mps 716 mmHg 88%
    22:00 -1°C° 0.1 mm 2 mps 716 mmHg 88%
    23:00 -1°C° 0.2 mm 2 mps 716 mmHg 88%

    Tomorrow, 16 December, Saturday

    Time Temperature Precipitation Wind Pressure Humidity
    00:00 -1°C° 0.2 mm 2 mps 716 mmHg 88%
    01:00 +1°C° 0.2 mm 1 mps 717 mmHg 88%
    02:00 +1°C° 0.2 mm 1 mps 717 mmHg 89%
    03:00 +1°C° 0.2 mm 1 mps 717 mmHg 90%
    04:00 +1°C° 0.2 mm 1 mps 718 mmHg 90%
    05:00 +1°C° 0.2 mm 1 mps 718 mmHg 90%
    06:00 +1°C° 0.2 mm 1 mps 719 mmHg 90%
    07:00 +1°C° 0.2 mm 1 mps 719 mmHg 91%
    08:00 +2°C° 0.2 mm 1 mps 720 mmHg 90%
    09:00 +1°C° 0.2 mm 2 mps 721 mmHg 89%
    10:00 +2°C° 0.2 mm 2 mps 722 mmHg 88%
    11:00 +2°C° 0.2 mm 2 mps 722 mmHg 88%
    12:00 +3°C° 0.2 mm 2 mps 723 mmHg 87%
    13:00 +2°C° 0.2 mm 3 mps 723 mmHg 86%
    14:00 +3°C° 0.2 mm 2 mps 724 mmHg 87%
    15:00 +2°C° 0.2 mm 2 mps 724 mmHg 87%
    16:00 +2°C° 0.2 mm 2 mps 725 mmHg 88%
    17:00 +2°C° 0.1 mm 2 mps 726 mmHg 90%
    18:00 +1°C° 0.1 mm 2 mps 726 mmHg 91%
    19:00 +2°C° 0.1 mm 1 mps 727 mmHg 93%
    20:00 +1°C° 0.1 mm 1 mps 728 mmHg 93%
    21:00 +1°C° 0.1 mm 1 mps 728 mmHg 93%
    22:00 +1°C° 0.1 mm 1 mps 729 mmHg 94%
    23:00 +1°C° 0.1 mm 1 mps 729 mmHg 94%

    Day after tomorrow, 17 December, Sunday

    Time Temperature Precipitation Wind Pressure Humidity
    00:00 +1°C° 0.1 mm 1 mps 730 mmHg 94%
    01:00 +1°C° 0.1 mm 1 mps 730 mmHg 94%
    02:00 +1°C° 0.1 mm 1 mps 730 mmHg 94%
    03:00 -1°C° 0.1 mm 2 mps 731 mmHg 94%
    04:00 -2°C° 0.1 mm 2 mps 731 mmHg 94%
    05:00 -2°C° 0.1 mm 2 mps 731 mmHg 93%
    06:00 -2°C° 0.1 mm 2 mps 732 mmHg 93%
    07:00 -2°C° 0.1 mm 2 mps 732 mmHg 93%
    08:00 -2°C° 0 mm 2 mps 733 mmHg 91%
    09:00 -2°C° 0 mm 2 mps 734 mmHg 90%
    10:00 -1°C° 0 mm 2 mps 734 mmHg 88%
    11:00 -1°C° 0 mm 2 mps 734 mmHg 85%
    12:00 +1°C° 0 mm 2 mps 734 mmHg 82%
    13:00 +1°C° 0 mm 2 mps 734 mmHg 79%
    14:00 +2°C° 0 mm 1 mps 735 mmHg 81%
    15:00 +2°C° 0 mm 1 mps 735 mmHg 83%
    16:00 +1°C° 0 mm 1 mps 735 mmHg 86%
    17:00 0°C° 0 mm 1 mps 736 mmHg 87%
    18:00 -1°C° 0 mm 1 mps 736 mmHg 88%
    19:00 -2°C° 0 mm 1 mps 737 mmHg 90%
    20:00 -2°C° 0 mm 1 mps 737 mmHg 90%
    21:00 -2°C° 0 mm 1 mps 738 mmHg 89%
    22:00 -3°C° 0 mm 1 mps 738 mmHg 89%
    23:00 -3°C° 0 mm 1 mps 738 mmHg 88%

    18 December, Monday

    Time Temperature Precipitation Wind Pressure Humidity
    00:00 -5°C° 0 mm 2 mps 738 mmHg 87%
    01:00 -5°C° 0 mm 2 mps 738 mmHg 87%
    02:00 -4°C° 0 mm 2 mps 737 mmHg 85%
    03:00 -4°C° 0 mm 2 mps 737 mmHg 83%
    04:00 -4°C° 0 mm 2 mps 737 mmHg 81%
    05:00 -4°C° 0.2 mm 3 mps 736 mmHg 81%
    06:00 -4°C° 0.2 mm 3 mps 736 mmHg 80%
    07:00 -3°C° 0.2 mm 4 mps 736 mmHg 80%
    08:00 -2°C° 0.9 mm 4 mps 735 mmHg 83%
    09:00 -2°C° 0.9 mm 4 mps 735 mmHg 86%
    10:00 -1°C° 0.9 mm 4 mps 734 mmHg 89%
    11:00 0°C° 0.7 mm 4 mps 734 mmHg 90%
    12:00 0°C° 0.7 mm 4 mps 734 mmHg 90%
    13:00 +1°C° 0.7 mm 4 mps 733 mmHg 90%
    14:00 +1°C° 0.2 mm 4 mps 733 mmHg 91%
    15:00 +2°C° 0.2 mm 3 mps 733 mmHg 93%
    16:00 +3°C° 0.2 mm 2 mps 733 mmHg 94%
    17:00 +3°C° 0.2 mm 2 mps 734 mmHg 94%
    18:00 +2°C° 0.2 mm 2 mps 734 mmHg 95%
    19:00 +3°C° 0.2 mm 1 mps 735 mmHg 95%
    20:00 +3°C° 0.1 mm 1 mps 735 mmHg 95%
    21:00 +2°C° 0.1 mm 1 mps 736 mmHg 95%
    22:00 +2°C° 0.1 mm 1 mps 736 mmHg 95%
    23:00 +1°C° 0 mm 1 mps 737 mmHg 95%

    19 December, Tuesday

    Time Temperature Precipitation Wind Pressure Humidity
    00:00 +1°C° 0 mm 1 mps 737 mmHg 95%
    01:00 +1°C° 0 mm 1 mps 737 mmHg 95%
    02:00 -1°C° 0 mm 0 mps 737 mmHg 95%
    03:00 -1°C° 0 mm 0 mps 738 mmHg 94%
    04:00 -2°C° 0 mm 0 mps 738 mmHg 94%
    05:00 -2°C° 0 mm 0 mps 738 mmHg 93%
    06:00 -2°C° 0 mm 0 mps 739 mmHg 93%
    07:00 -2°C° 0 mm 0 mps 739 mmHg 92%
    08:00 -1°C° 0 mm 0 mps 739 mmHg 91%
    09:00 -1°C° 0 mm 0 mps 740 mmHg 90%
    10:00 0°C° 0 mm 0 mps 740 mmHg 89%
    11:00 +1°C° 0 mm 0 mps 740 mmHg 88%
    12:00 +2°C° 0 mm 0 mps 739 mmHg 87%
    13:00 +3°C° 0 mm 0 mps 739 mmHg 86%
    14:00 +2°C° 0 mm 0 mps 739 mmHg 88%
    15:00 +2°C° 0 mm 0 mps 739 mmHg 90%
    16:00 +2°C° 0 mm 0 mps 739 mmHg 92%
    17:00 +2°C° 0 mm 0 mps 740 mmHg 91%
    18:00 +1°C° 0 mm 0 mps 740 mmHg 91%
    19:00 +2°C° 0 mm 1 mps 740 mmHg 90%
    20:00 +2°C° 0.1 mm 1 mps 740 mmHg 90%
    21:00 +2°C° 0.1 mm 1 mps 740 mmHg 89%
    22:00 +2°C° 0.1 mm 1 mps 740 mmHg 88%
    23:00 +2°C° 0.1 mm 1 mps 740 mmHg 88%

    20 December, Wednesday

    Time Temperature Precipitation Wind Pressure Humidity
    00:00 +2°C° 0.1 mm 1 mps 740 mmHg 88%
    01:00 +2°C° 0.1 mm 1 mps 740 mmHg 88%
    02:00 +2°C° 0.1 mm 1 mps 740 mmHg 89%
    03:00 +2°C° 0.1 mm 1 mps 740 mmHg 89%
    04:00 +3°C° 0.1 mm 1 mps 740 mmHg 90%
    05:00 +3°C° 0.1 mm 1 mps 740 mmHg 90%
    06:00 +3°C° 0.1 mm 1 mps 740 mmHg 90%
    07:00 +3°C° 0.1 mm 1 mps 740 mmHg 90%
    08:00 +3°C° 0 mm 1 mps 740 mmHg 90%
    09:00 +4°C° 0 mm 1 mps 741 mmHg 90%
    10:00 +4°C° 0 mm 1 mps 741 mmHg 90%
    11:00 +5°C° 0 mm 1 mps 741 mmHg 90%
    12:00 +4°C° 0 mm 0 mps 741 mmHg 90%
    13:00 +5°C° 0 mm 0 mps 740 mmHg 90%
    14:00 +5°C° 0 mm 0 mps 741 mmHg 91%
    15:00 +4°C° 0 mm 0 mps 741 mmHg 93%
    16:00 +4°C° 0 mm 0 mps 741 mmHg 94%
    17:00 +4°C° 0.1 mm 0 mps 741 mmHg 94%
    18:00 +4°C° 0.1 mm 0 mps 741 mmHg 94%
    19:00 +4°C° 0.1 mm 0 mps 742 mmHg 94%
    20:00 +4°C° 0 mm 0 mps 742 mmHg 94%
    21:00 +5°C° 0 mm 1 mps 742 mmHg 94%
    22:00 +4°C° 0 mm 1 mps 742 mmHg 94%
    23:00 +4°C° 0 mm 1 mps 742 mmHg 94%
    Show more